Waarnemingen

Advertentie
Mijn weer
K14A, Nederland (6204): temperatuur & dauwpunt: 15.01.2017 01:00:00 - 21.01.2017 01:00:00 (CET)K14A, Nederland (6204): windsnelheid & windstoten: 15.01.2017 01:00:00 - 21.01.2017 01:00:00 (CET)K14A, Nederland (6204): windrichting: 15.01.2017 01:00:00 - 21.01.2017 01:00:00 (CET)K14A, Nederland (6204): luchtdruk: 15.01.2017 01:00:00 - 21.01.2017 01:00:00 (CET)K14A, Nederland (6204): zicht: 15.01.2017 01:00:00 - 21.01.2017 01:00:00 (CET)
Datum & Tijd tt [°C] td [°C] ff [km/u] ff [kn] fx [km/u] fx [kn] dd ppp [hPa] vv [km]
21.01.2017 01:00:00 6,2 2,7 15 8 - - NO 1034,0 50
21.01.2017 00:00:00 6,5 2,3 16 9 18 10 O 1034,5 10
20.01.2017 23:00:00 6,2 2,4 11 6 18 10 O 1034,8 10
20.01.2017 22:00:00 6,0 2,8 18 10 22 12 NNO 1035,0 10
20.01.2017 21:00:00 6,2 2,7 9 5 14 8 O 1035,4 10
20.01.2017 20:00:00 6,1 2,5 11 6 14 8 O 1035,2 10
20.01.2017 19:00:00 5,7 2,0 15 8 14 8 O 1035,3 10
20.01.2017 18:00:00 6,0 1,4 15 8 14 8 O 1035,4 10
20.01.2017 17:00:00 6,2 -1,1 13 7 14 8 O 1035,6 10
20.01.2017 16:00:00 5,9 -0,5 11 6 11 6 O 1035,5 10
20.01.2017 15:00:00 5,8 1,0 11 6 14 8 O 1035,6 10
20.01.2017 14:00:00 6,0 2,2 11 6 11 6 O 1035,9 10
20.01.2017 13:00:00 6,3 2,1 11 6 11 6 OZO 1036,2 10
20.01.2017 12:00:00 6,7 1,9 9 5 11 6 O 1036,6 10
20.01.2017 11:00:00 7,1 2,0 8 4 11 6 OZO 1037,0 10
20.01.2017 10:00:00 5,7 2,7 9 5 11 6 ZO 1036,8 10
20.01.2017 09:00:00 6,1 3,4 8 4 7 4 O 1036,7 10
20.01.2017 08:00:00 6,0 3,2 5 3 7 4 ONO 1036,6 10
20.01.2017 07:00:00 5,9 3,1 8 4 7 4 NO 1036,4 10
20.01.2017 06:00:00 5,8 2,7 5 3 7 4 NO 1036,5 10
20.01.2017 05:00:00 6,6 2,9 4 2 4 2 NNO 1036,8 10
20.01.2017 04:00:00 5,6 2,3 4 2 7 4 - 1036,9 10
20.01.2017 03:00:00 8,4 3,1 2 1 7 4 ZZW 1036,9 10
20.01.2017 02:00:00 7,3 2,2 2 1 4 2 - 1037,1 10
20.01.2017 01:00:00 8,2 2,7 4 2 7 4 - 1037,4 10
20.01.2017 00:00:00 6,2 1,5 5 3 11 6 ZZW 1037,9 10
19.01.2017 23:00:00 5,7 1,7 9 5 11 6 ZZW 1037,8 10
19.01.2017 22:00:00 5,7 1,9 9 5 11 6 Z 1037,9 10
19.01.2017 21:00:00 6,1 1,8 9 5 11 6 Z 1037,9 10
19.01.2017 20:00:00 6,0 2,0 8 4 11 6 ZZW 1037,7 10
19.01.2017 19:00:00 6,1 2,5 9 5 11 6 Z 1037,5 10
19.01.2017 18:00:00 5,8 2,4 8 4 11 6 ZZW 1037,5 10
19.01.2017 17:00:00 6,3 2,4 5 3 7 4 ZZW 1037,6 10
19.01.2017 16:00:00 6,6 2,7 4 2 11 6 ZZW 1037,4 21
19.01.2017 15:00:00 6,0 2,5 11 6 14 8 ZW 1037,6 10
19.01.2017 14:00:00 5,7 2,2 13 7 14 8 ZW 1037,8 10
19.01.2017 13:00:00 5,7 2,4 15 8 14 8 ZW 1038,2 10
19.01.2017 12:00:00 5,7 2,2 13 7 14 8 ZW 1038,6 10
19.01.2017 11:00:00 5,8 2,3 13 7 14 8 ZZW 1038,8 10
19.01.2017 10:00:00 6,1 1,9 11 6 11 6 ZZW 1038,7 10
19.01.2017 09:00:00 8,0 2,9 4 2 14 8 ZW 1038,4 50
19.01.2017 08:00:00 5,5 1,5 14 8 18 10 ZW 1037,6 23
19.01.2017 07:00:00 5,5 1,2 14 8 14 8 ZZW 1037,4 22
19.01.2017 06:00:00 5,5 1,3 11 6 14 8 ZW 1037,8 21
19.01.2017 05:00:00 5,4 0,7 13 7 14 8 ZZW 1038,0 10
19.01.2017 04:00:00 5,5 0,8 11 6 18 10 ZW 1038,1 21
19.01.2017 03:00:00 5,5 1,0 14 8 18 10 ZW 1038,1 20
19.01.2017 02:00:00 5,4 1,3 14 8 18 10 ZW 1038,3 18
19.01.2017 01:00:00 5,4 1,4 16 9 18 10 WZW 1038,4 10
19.01.2017 00:00:00 5,4 1,5 18 10 18 10 ZW 1038,5 10
18.01.2017 23:00:00 5,3 1,5 18 10 18 10 ZW 1038,3 10
18.01.2017 22:00:00 5,4 1,5 16 9 18 10 ZW 1038,5 10
18.01.2017 21:00:00 5,3 1,4 16 9 18 10 ZW 1038,7 10
18.01.2017 20:00:00 5,3 1,3 16 9 18 10 ZW 1038,7 10
18.01.2017 19:00:00 5,3 1,0 16 9 18 10 ZW 1038,7 10
18.01.2017 18:00:00 5,3 0,8 18 10 18 10 ZW 1038,7 10
18.01.2017 17:00:00 5,3 0,4 18 10 22 12 ZW 1038,7 10
18.01.2017 16:00:00 5,3 0,3 18 10 22 12 ZW 1038,7 10
18.01.2017 15:00:00 5,4 -0,8 21 11 22 12 ZZW 1038,9 10
18.01.2017 14:00:00 5,3 -1,5 21 11 25 14 ZW 1039,0 10
18.01.2017 13:00:00 5,2 -0,9 24 13 29 16 ZZW 1039,1 10
18.01.2017 12:00:00 5,0 -1,6 24 13 25 14 ZZW 1039,2 10
18.01.2017 11:00:00 5,1 -1,8 24 13 25 14 ZZW 1039,4 10
18.01.2017 10:00:00 5,0 -1,7 28 15 29 16 ZZW 1039,3 10
18.01.2017 09:00:00 4,8 -2,2 28 15 32 18 ZZW 1039,0 10
18.01.2017 08:00:00 4,8 -3,2 28 15 29 16 ZZW 1038,4 10
18.01.2017 07:00:00 4,8 -3,3 26 14 25 14 ZZW 1038,1 10
18.01.2017 06:00:00 4,7 -3,0 26 14 29 16 ZZW 1038,0 10
18.01.2017 05:00:00 4,8 -3,2 26 14 29 16 ZZW 1038,2 10
18.01.2017 04:00:00 4,8 -2,8 28 15 29 16 ZZW 1038,3 10
18.01.2017 03:00:00 4,6 -2,8 26 14 29 16 ZZW 1038,8 10
18.01.2017 02:00:00 4,6 -3,0 26 14 29 16 ZZW 1038,9 10
18.01.2017 01:00:00 4,6 -3,2 28 15 29 16 ZZW 1038,7 10
18.01.2017 00:00:00 4,5 -3,1 28 15 29 16 ZZW 1038,7 10
17.01.2017 23:00:00 4,3 -2,6 26 14 29 16 ZZW 1038,5 10
17.01.2017 22:00:00 4,0 -2,8 24 13 25 14 ZZW 1038,7 10
17.01.2017 21:00:00 3,7 -1,8 24 13 25 14 ZZW 1038,5 10
17.01.2017 20:00:00 3,8 -0,8 24 13 25 14 Z 1038,3 10
17.01.2017 19:00:00 3,6 -1,5 22 12 25 14 ZZW 1038,1 10
17.01.2017 18:00:00 4,0 -1,5 22 12 25 14 Z 1037,8 10
17.01.2017 17:00:00 3,8 -2,2 18 10 22 12 ZZW 1037,7 10
17.01.2017 16:00:00 4,0 -2,6 18 10 22 12 Z 1037,6 10
17.01.2017 15:00:00 4,2 -2,0 16 9 22 12 Z 1037,9 10
17.01.2017 14:00:00 4,2 -1,7 18 10 22 12 Z 1037,5 10
17.01.2017 13:00:00 4,1 -2,1 16 9 18 10 Z 1037,6 10
17.01.2017 12:00:00 4,0 -2,2 16 9 18 10 Z 1037,7 10
17.01.2017 11:00:00 3,9 -3,2 15 8 14 8 Z 1037,5 10
17.01.2017 10:00:00 3,7 -4,1 11 6 14 8 Z 1037,4 10
17.01.2017 09:00:00 3,3 -5,6 13 7 18 10 ZZO 1036,7 10
17.01.2017 08:00:00 3,6 -4,0 15 8 18 10 Z 1035,9 10
17.01.2017 07:00:00 3,3 -4,9 13 7 - - Z 1035,7 10
17.01.2017 06:00:00 3,3 -4,9 13 7 18 10 ZZO 1035,5 10
17.01.2017 05:00:00 3,2 -5,0 15 8 18 10 ZO 1035,0 10
17.01.2017 04:00:00 2,8 -4,4 15 8 - - ZO 1035,0 10
17.01.2017 03:00:00 2,8 -3,7 15 8 18 10 ZZO 1034,7 10
17.01.2017 02:00:00 3,0 -3,5 13 7 18 10 ZZO 1034,2 10
17.01.2017 01:00:00 2,8 -2,9 18 10 22 12 ZZO 1034,1 10
17.01.2017 00:00:00 2,8 -3,3 15 8 18 10 ZZO 1033,7 10
16.01.2017 23:00:00 3,2 -4,1 13 7 18 10 ZO 1033,5 10
16.01.2017 22:00:00 3,2 -4,2 16 9 22 12 ZO 1033,1 10
16.01.2017 21:00:00 3,5 -4,0 21 11 25 14 ZO 1032,5 10
16.01.2017 20:00:00 4,0 -2,4 22 12 25 14 OZO 1031,6 10
16.01.2017 19:00:00 4,6 -2,7 21 11 22 12 OZO 1030,9 10
16.01.2017 18:00:00 4,5 -0,7 16 9 22 12 OZO 1030,4 10
16.01.2017 17:00:00 4,8 -0,7 15 8 22 12 OZO 1029,9 10
16.01.2017 16:00:00 4,8 -1,2 18 10 22 12 OZO 1029,3 10
16.01.2017 15:00:00 4,9 -1,1 16 9 22 12 OZO 1028,8 10
16.01.2017 14:00:00 5,5 -1,5 11 6 14 8 ZZO 1028,6 10
16.01.2017 13:00:00 5,2 -1,6 5 3 11 6 ZZO 1028,6 10
16.01.2017 12:00:00 5,4 -2,5 8 4 14 8 NO 1028,5 10
16.01.2017 11:00:00 5,2 -1,5 9 5 14 8 O 1028,1 10
16.01.2017 10:00:00 5,1 -0,5 18 10 22 12 OZO 1027,7 10
16.01.2017 09:00:00 5,4 0,1 16 9 18 10 ONO 1027,1 10
16.01.2017 08:00:00 5,6 0,3 15 8 18 10 NO 1026,5 10
16.01.2017 07:00:00 5,3 0,1 15 8 18 10 N 1026,1 10
16.01.2017 06:00:00 5,4 -1,7 16 9 25 14 NNO 1025,6 10
16.01.2017 05:00:00 5,3 0,9 18 10 22 12 NO 1025,6 10
16.01.2017 04:00:00 5,5 -0,6 24 13 25 14 NNO 1025,3 10
16.01.2017 03:00:00 5,2 0,5 21 11 25 14 NNO 1024,9 10
16.01.2017 02:00:00 5,4 0,7 22 12 22 12 N 1024,7 10
16.01.2017 01:00:00 5,5 0,0 22 12 32 18 NNO 1024,7 10
16.01.2017 00:00:00 5,5 1,9 13 7 25 14 NNW 1024,5 10
15.01.2017 23:00:00 5,1 1,5 15 8 29 16 N 1024,2 10
15.01.2017 22:00:00 5,3 1,7 11 6 14 8 NNW 1023,9 10
15.01.2017 21:00:00 5,1 1,7 11 6 14 8 N 1023,6 10
15.01.2017 20:00:00 5,0 1,9 11 6 18 10 NNW 1023,1 10
15.01.2017 19:00:00 4,7 2,1 13 7 18 10 NW 1022,7 10
15.01.2017 18:00:00 5,0 1,8 13 7 18 10 W 1022,1 10
15.01.2017 17:00:00 7,6 2,4 13 7 14 8 WZW 1021,5 10
15.01.2017 16:00:00 4,6 1,4 9 5 14 8 ZZW 1020,9 10
15.01.2017 15:00:00 5,6 1,7 8 4 11 6 ZZW 1020,5 10
15.01.2017 14:00:00 6,7 1,4 4 2 11 6 - 1020,5 10
15.01.2017 13:00:00 4,6 0,7 8 4 14 8 - 1020,5 10
15.01.2017 12:00:00 4,9 0,0 11 6 18 10 N 1020,5 10
15.01.2017 11:00:00 5,5 -1,0 9 5 22 12 NNW 1020,2 10
15.01.2017 10:00:00 5,6 -1,6 16 9 29 16 - 1020,1 10
15.01.2017 09:00:00 5,3 0,4 26 14 32 18 NW 1020,3 10
15.01.2017 08:00:00 5,8 -2,9 28 15 32 18 NW 1020,0 10
15.01.2017 07:00:00 5,6 -3,3 31 17 36 19 NW 1019,6 10
15.01.2017 06:00:00 5,4 -3,1 34 18 36 19 NW 1019,3 10
15.01.2017 05:00:00 4,9 -1,1 29 16 36 19 NNW 1019,1 10
15.01.2017 04:00:00 5,0 -2,1 28 15 - - NW 1019,2 10
15.01.2017 03:00:00 4,2 0,0 39 21 54 29 NW 1018,7 10
15.01.2017 02:00:00 3,7 -0,6 41 22 50 27 NNW 1019,1 10
15.01.2017 01:00:00 4,6 -2,9 55 30 58 31 NNW 1018,5 10

tt = temperatuur
td = dauwpunt
ff = windsnelheid
fx = windstoten
dd = windrichting
ppp = luchtdruk
vv = zicht

Weerstations in de omgeving